This demonstration page uses our WeatherBlox Daily Observations layout. Learn more.

Left ArrowRight Arrow

41.55636, -103.73856

Hourly Observations for October 29, 2021

Temp ( °F °C ) Dew Point ( °F °C ) Humidity (%) Winds ( mph kmh ) Pressure ( in mb ) Visibility ( mi km ) Precip ( " mm )
12:58 am 00:58 Clear 36 2.3 25 -3.7 65 65 SSW 3 6 30.32 1027 10 16 0.00 0.00
1:58 am 01:58 Clear 33 0.4 26 -3.3 77 77 WSW 6 9 30.24 1024 10 16 0.00 0.00
2:58 am 02:58 Clear 33 0.3 26 -3.1 78 78 W 5 7 30.23 1024 10 16 0.00 0.00
3:58 am 03:58 Clear 38 3.6 31 -0.3 76 76 SW 8 13 30.19 1022 10 16 0.00 0.00
4:58 am 04:58 Clear 41 4.9 33 0.3 72 72 WSW 7 11 30.23 1024 10 16 0.00 0.00
5:58 am 05:58 Clear 40 4.3 32 0 74 74 SW 6 9 30.19 1022 10 16 0.00 0.00
6:58 am 06:58 Clear 41 5 32 0 70 70 WSW 7 11 30.21 1023 10 16 0.00 0.00
7:58 am 07:58 Sunny 40 4.4 32 -0.2 72 72 WSW 7 11 30.20 1023 10 16 0.00 0.00
8:58 am 08:58 Sunny 45 7.3 35 1.4 66 66 W 7 11 30.19 1022 10 16 0.00 0.00
9:58 am 09:58 Sunny 56 13.3 33 0.6 42 42 W 10 17 30.14 1021 10 16 0.00 0.00
10:58 am 10:58 Sunny 60 15.5 31 -0.6 33 33 W 12 19 30.10 1019 10 16 0.00 0.00
11:58 am 11:58 Sunny 64 17.5 31 -0.5 30 30 W 12 19 30.07 1018 10 16 0.00 0.00
12:58 pm 12:58 Sunny 67 19.7 28 -2.3 23 23 W 13 20 30.02 1017 10 16 0.00 0.00
1:58 pm 13:58 Sunny 70 21.2 27 -3 20 20 WSW 10 17 29.98 1015 10 16 0.00 0.00
2:58 pm 14:58 Sunny 71 21.6 24 -4.3 17 17 W 10 17 29.96 1015 10 16 0.00 0.00
3:58 pm 15:58 Sunny 72 22.1 27 -2.8 19 19 WSW 10 17 29.93 1014 10 16 0.00 0.00
4:58 pm 16:58 Sunny 69 20.6 26 -3.3 20 20 SSW 10 17 29.91 1013 10 16 0.00 0.00
5:58 pm 17:58 Clear 59 15.1 28 -2.4 30 30 SSW 13 20 29.93 1013 10 16 0.00 0.00
6:58 pm 18:58 Clear 51 10.6 29 -1.4 44 44 SSW 13 20 29.94 1014 10 16 0.00 0.00
7:58 pm 19:58 Clear 52 11.1 29 -1.6 42 42 SW 16 26 29.94 1014 10 16 0.00 0.00
8:58 pm 20:58 Clear 53 11.5 28 -2.3 38 38 SSW 14 22 29.92 1013 10 16 0.00 0.00
9:58 pm 21:58 Clear 52 11.1 26 -3.3 37 37 SW 7 11 29.90 1013 10 16 0.00 0.00
10:58 pm 22:58 Clear 51 10.6 26 -3.3 38 38 W 8 13 29.88 1012 10 16 0.00 0.00
11:58 pm 23:58 Clear 47 8.4 26 -3.3 44 44 SW 9 15 29.87 1012 10 16 0.00 0.00

Powered by AerisWeather